Powrót do katalogu

KL-ALPHA B

AktywnyNaukaPO
NORAD 44786·PAYLOAD·🇩🇪 Germany

Wystrzelony Nov 17, 2019 z Jiuquan Satellite Launch Center

Loading…

Następne Przeloty (najbliższe 24 godziny)

TLE

ŚwieżeSource: Space-Track

Epoka: Sep 14, 2026, 13:28 UTC

1 44786U 19077B   26257.56160912 -.00000026  00000-0 -54134-4 0  9996
2 44786  88.9175 210.2680 0024173 249.2581 110.5982 13.56008694337298

Śledź KL-ALPHA B w czasie rzeczywistym z AllMySat

Download on the App Store